Location: Ponte Samoggia
(44.5667°N, 11.1333°E)
Time: 15:52:09
(UTC+00:00)

ADEOS II - Pass Details

Date: 26 May 2022
Orbit: 799 x 800 km, 98.6° (Epoch: 06 July)

Event Time Altitude Azimuth Distance (km) Brightness Sun altitude
Rises 23:58:48 0° 32° (NNE) 3,316 6.5 -23.5°
Reaches altitude 10° 00:02:17 10° 56° (NE) 2,379 5.1 -23.4°
Maximum altitude 00:05:07 15° 89° (E) 2,069 4.4 -23.3°
Enters shadow 00:07:47 10° 120° (ESE) 2,339 4.3 -23.1°
